ORBCOMM FM107 (40087 NORAD) Tracking and Keplerian Element Data

This shows tracking and keplerian element data for the satellite.

Feedback or suggestion? Click here.




ElementValue
Catalog40087
NameORBCOMM FM107
Epoch Orbit56157
Epoch Day34.11235488
Epoch Year2025
RAAN290.3477
Inclination47.0057
Eccentricity0.0001205
Argument of Perigee15.1126
Mean Anonmoly344.9795
Mean Motion14.57824951
Decay Rate1.662E-05
L11 40087U 14040B 25034.11235488 .00001662 00000+0 39616-3 0 9996
L22 40087 47.0057 290.3477 0001205 15.1126 344.9795 14.57824951561571



Live tracking and technical data element details for ORBCOMM FM107 (NORAD 40087). ORBCOMM FM107 can be tracked NOW for your location showing map with azimuth and elevation plus other details from your city location.







IsCatalogInMostPopularTable: catalog: 40087, numindb: 560
Update: records affected: 1



GetName: 40087 ORBCOMM FM107

Hit Count: updated at: Thu, 15 May 2025 19:27:25 GMT